Find Starlink 5117

NORAD ID: 54172 Int'l Des: 2022-141 Owner: SPXS Country: US Constellation: starlink operational
LEOCIRCULAR

实时位置

正在加载3D地球...

关于 Starlink 5117

正在加载描述...

即将过境

Passes for default location (London). Set your location on the main map for personalized predictions.

高度历史

Loading altitude history...

两行轨道根数

1 54172U 22141R 26122.18284389 .00000134 00000-0 26530-4 0 9993
2 54172 53.2163 123.9507 0001207 78.2566 281.8561 15.08835704193939
Epoch: May 2, 2026 • Age: 4 hours

当前状态

高度 546.4 km
速度 7.59 km/s
星下点 -21.73°S, 27.09°W
发射日期 Oct 28, 2022
运行时间 3.5 years
类型 internet

技术详情

分类 Payload
质量 305.00 kg
干质量 290.00 kg
总质量 305.00 kg
长度 0.20 m
直径 2.80 m
跨度 9.00 m
形状 Box + pan
制造商 SPXS
平台类型 Starlink
阶段状态 In Orbit
所有者/国家 SPXS/US

Most Searched